Le nostre stazioni meteo in Italia

Pubblicità
Il mio iltempo24.it
Cozzo Spadaro, Italia (16480): Temperatura & dewpoint: 17.10.2017 04:00:00 - 23.10.2017 04:00:00 (CEST)Cozzo Spadaro, Italia (16480): velocità del vento: 17.10.2017 04:00:00 - 23.10.2017 04:00:00 (CEST)Cozzo Spadaro, Italia (16480): direzione del vento: 17.10.2017 04:00:00 - 23.10.2017 04:00:00 (CEST)Cozzo Spadaro, Italia (16480): reduced air pressure: 17.10.2017 04:00:00 - 23.10.2017 04:00:00 (CEST)Cozzo Spadaro, Italia (16480): visibility: 17.10.2017 04:00:00 - 23.10.2017 04:00:00 (CEST)Cozzo Spadaro, Italia (16480): ore di luce: 17.10.2017 04:00:00 - 23.10.2017 04:00:00 (CEST)
Data & Tempo tt [°C] td [°C] ff [km/h] ff [kn] dd ppp [hPa] vv [km] sd [min]
23.10.2017 04:00:00 - - - - - - - -
23.10.2017 03:00:00 - - - - - - - -
23.10.2017 02:00:00 - - - - - - - -
23.10.2017 01:00:00 - - - - - - - -
23.10.2017 00:00:00 - - - - - - - -
22.10.2017 23:00:00 - - - - - - - -
22.10.2017 22:00:00 - - - - - - - -
22.10.2017 21:00:00 - - - - - - - -
22.10.2017 20:00:00 - - - - - - - -
22.10.2017 19:00:00 - - - - - - - -
22.10.2017 18:00:00 - - - - - - - -
22.10.2017 17:00:00 - - - - - - - -
22.10.2017 16:00:00 - - - - - - - -
22.10.2017 15:00:00 - - - - - - - -
22.10.2017 14:00:00 - - - - - - - -
22.10.2017 13:00:00 - - - - - - - -
22.10.2017 12:00:00 - - - - - - - -
22.10.2017 11:00:00 - - - - - - - -
22.10.2017 10:00:00 - - - - - - - -
22.10.2017 09:00:00 - - - - - - - -
22.10.2017 08:00:00 - - - - - - - -
22.10.2017 07:00:00 - - - - - - - -
22.10.2017 06:00:00 - - - - - - - -
22.10.2017 05:00:00 - - - - - - - -
22.10.2017 04:00:00 - - - - - - - -
22.10.2017 03:00:00 - - - - - - - -
22.10.2017 02:00:00 - - - - - - - -
22.10.2017 01:00:00 - - - - - - - -
22.10.2017 00:00:00 - - - - - - - -
21.10.2017 23:00:00 - - - - - - - -
21.10.2017 22:00:00 - - - - - - - -
21.10.2017 21:00:00 - - - - - - - -
21.10.2017 20:00:00 20,8 18,9 0 0 N 1018,4 10 -
21.10.2017 19:00:00 21,0 18,9 0 0 N 1018,3 15 -
21.10.2017 18:00:00 21,4 19,0 4 2 SSE 1018,0 20 30
21.10.2017 17:00:00 22,4 19,4 9 5 SE 1018,0 20 60
21.10.2017 16:00:00 23,0 20,2 8 4 ESE 1018,5 20 60
21.10.2017 15:00:00 23,0 20,2 11 6 E 1018,5 20 60
21.10.2017 14:00:00 23,0 20,2 15 8 ENE 1018,8 20 60
21.10.2017 13:00:00 23,0 20,2 13 7 ENE 1019,0 20 60
21.10.2017 12:00:00 23,0 20,2 11 6 ENE 1019,0 18 48
21.10.2017 11:00:00 22,0 19,7 11 6 ENE 1019,0 15 12
21.10.2017 10:00:00 22,0 19,5 15 8 NE 1018,4 15 24
21.10.2017 09:00:00 21,0 19,5 13 7 NE 1018,0 10 0
21.10.2017 08:00:00 20,8 19,3 8 4 ENE 1017,8 12 0
21.10.2017 07:00:00 - - - - - - - -
21.10.2017 06:00:00 - - - - - - - -
21.10.2017 05:00:00 - - - - - - - -
21.10.2017 04:00:00 - - - - - - - -
21.10.2017 03:00:00 - - - - - - - -
21.10.2017 02:00:00 - - - - - - - -
21.10.2017 01:00:00 - - - - - - - -
21.10.2017 00:00:00 - - - - - - - -
20.10.2017 23:00:00 - - - - - - - -
20.10.2017 22:00:00 - - - - - - - -
20.10.2017 21:00:00 - - - - - - - -
20.10.2017 20:00:00 21,2 19,1 4 2 SE 1017,1 10 -
20.10.2017 19:00:00 21,4 19,2 8 4 SE 1017,0 12 -
20.10.2017 18:00:00 21,8 19,4 5 3 ESE 1016,8 15 0
20.10.2017 17:00:00 22,2 19,5 11 6 ESE 1016,8 15 0
20.10.2017 16:00:00 22,6 20,3 9 5 E 1016,8 15 6
20.10.2017 15:00:00 23,6 20,9 9 5 E 1016,9 15 60
20.10.2017 14:00:00 23,4 20,5 9 5 E 1017,0 15 42
20.10.2017 13:00:00 22,2 19,7 8 4 NE 1017,6 15 6
20.10.2017 12:00:00 22,0 19,4 9 5 NE 1017,4 20 48
20.10.2017 11:00:00 22,0 19,2 8 4 ENE 1017,0 20 60
20.10.2017 10:00:00 21,6 19,0 5 3 NE 1017,0 20 48
20.10.2017 09:00:00 20,4 18,4 5 3 NNE 1016,6 18 0
20.10.2017 08:00:00 18,0 17,0 4 2 NNE 1016,1 15 0
20.10.2017 07:00:00 - - - - - - - -
20.10.2017 06:00:00 - - - - - - - -
20.10.2017 05:00:00 - - - - - - - -
20.10.2017 04:00:00 - - - - - - - -
20.10.2017 03:00:00 - - - - - - - -
20.10.2017 02:00:00 - - - - - - - -
20.10.2017 01:00:00 - - - - - - - -
20.10.2017 00:00:00 - - - - - - - -
19.10.2017 23:00:00 - - - - - - - -
19.10.2017 22:00:00 - - - - - - - -
19.10.2017 21:00:00 - - - - - - - -
19.10.2017 20:00:00 21,0 19,3 2 1 SSO 1016,0 15 -
19.10.2017 19:00:00 21,0 19,1 2 1 S 1016,0 20 -
19.10.2017 18:00:00 21,0 18,9 5 3 SSO 1016,0 20 48
19.10.2017 17:00:00 21,6 19,0 8 4 SSO 1016,1 20 42
19.10.2017 16:00:00 22,6 18,6 9 5 SSO 1016,3 20 60
19.10.2017 15:00:00 23,0 18,3 9 5 SSO 1016,8 20 60
19.10.2017 14:00:00 22,8 17,5 8 4 SO 1017,1 20 60
19.10.2017 13:00:00 22,6 18,2 9 5 SSO 1017,4 20 60
19.10.2017 12:00:00 22,0 17,6 9 5 ESE 1017,5 20 60
19.10.2017 11:00:00 21,8 17,8 9 5 SO 1017,5 20 60
19.10.2017 10:00:00 21,0 17,6 5 3 SO 1017,0 20 60
19.10.2017 09:00:00 19,4 16,2 0 0 N 1017,1 20 36
19.10.2017 08:00:00 18,0 15,1 0 0 N 1016,8 20 0
19.10.2017 07:00:00 - - - - - - - -
19.10.2017 06:00:00 - - - - - - - -
19.10.2017 05:00:00 - - - - - - - -
19.10.2017 04:00:00 - - - - - - - -
19.10.2017 03:00:00 - - - - - - - -
19.10.2017 02:00:00 - - - - - - - -
19.10.2017 01:00:00 - - - - - - - -
19.10.2017 00:00:00 - - - - - - - -
18.10.2017 23:00:00 - - - - - - - -
18.10.2017 22:00:00 - - - - - - - -
18.10.2017 21:00:00 - - - - - - - -
18.10.2017 20:00:00 19,8 18,1 9 5 O 1016,8 20 -
18.10.2017 19:00:00 20,0 18,3 11 6 O 1016,0 20 -
18.10.2017 18:00:00 21,0 18,4 13 7 O 1016,4 20 60
18.10.2017 17:00:00 21,4 17,2 13 7 O 1016,9 20 60
18.10.2017 16:00:00 22,0 17,4 16 9 O 1017,0 20 60
18.10.2017 15:00:00 22,4 17,1 16 9 O 1017,2 20 60
18.10.2017 14:00:00 22,2 16,5 15 8 O 1018,2 20 60
18.10.2017 13:00:00 22,0 16,3 11 6 O 1019,0 20 60
18.10.2017 12:00:00 22,0 17,2 11 6 O 1019,8 20 60
18.10.2017 11:00:00 21,0 18,0 4 2 O 1019,8 20 60
18.10.2017 10:00:00 20,8 18,5 0 0 N 1019,9 20 60
18.10.2017 09:00:00 20,0 18,8 0 0 N 1019,7 20 36
18.10.2017 08:00:00 17,6 16,8 0 0 N 1019,4 20 0
18.10.2017 07:00:00 - - - - - - - -
18.10.2017 06:00:00 - - - - - - - -
18.10.2017 05:00:00 - - - - - - - -
18.10.2017 04:00:00 - - - - - - - -
18.10.2017 03:00:00 - - - - - - - -
18.10.2017 02:00:00 - - - - - - - -
18.10.2017 01:00:00 - - - - - - - -
18.10.2017 00:00:00 - - - - - - - -
17.10.2017 23:00:00 - - - - - - - -
17.10.2017 22:00:00 - - - - - - - -
17.10.2017 21:00:00 - - - - - - - -
17.10.2017 20:00:00 19,6 17,6 0 0 N 1022,1 20 -
17.10.2017 19:00:00 20,0 17,6 2 1 O 1022,1 20 0
17.10.2017 18:00:00 21,0 17,4 4 2 OSO 1022,1 25 60
17.10.2017 17:00:00 21,8 18,0 5 3 SO 1022,0 25 60
17.10.2017 16:00:00 22,4 18,2 8 4 SO 1022,8 25 60
17.10.2017 15:00:00 22,6 18,0 8 4 SO 1023,0 25 60
17.10.2017 14:00:00 22,4 18,0 8 4 SSO 1023,4 25 60
17.10.2017 13:00:00 22,6 18,2 8 4 SO 1024,0 20 60
17.10.2017 12:00:00 23,0 18,8 8 4 SO 1024,8 25 60
17.10.2017 11:00:00 22,6 19,0 4 2 ESE 1024,8 25 60
17.10.2017 10:00:00 22,2 19,5 0 0 N 1024,6 25 60
17.10.2017 09:00:00 20,2 19,4 0 0 N 1024,1 18 36
17.10.2017 08:00:00 18,0 18,0 0 0 N 1024,1 25 0
17.10.2017 07:00:00 - - - - - - - -
17.10.2017 06:00:00 - - - - - - - -
17.10.2017 05:00:00 - - - - - - - -
17.10.2017 04:00:00 - - - - - - - -

tt = Temperatura
td = dewpoint
ff = velocità del vento
dd = direzione del vento
ppp = reduced air pressure
vv = visibility
sd = ore di luce

Stazioni seguenti

WeatherPro
AMSI
MeteoEarth